This is the latest recevied weather packets stored in our database for station/object K0APR. If no packets are shown the sender has not sent any weather packets the latest 10 day(s).
| Time | Temp. | Humidity | Pressure | Rain* | Wind** | Luminosity | Snow |
|---|---|---|---|---|---|---|---|
| 1777777814 | 16.67° C | 37% | 1008.1 hPa | 0 mm | - | 0 W/m² | - |
| 1777777510 | 16.67° C | 38% | 1008.1 hPa | 0 mm | - | 0 W/m² | - |
| 1777777207 | 16.67° C | 36% | 1008.4 hPa | 0 mm | - | 0 W/m² | - |
| 1777776904 | 16.67° C | 37% | 1008.4 hPa | 0 mm | - | 0 W/m² | - |
| 1777776601 | 16.67° C | 36% | 1008.4 hPa | 0 mm | - | 0 W/m² | - |
| 1777776297 | 17.22° C | 36% | 1008.4 hPa | 0 mm | - | 0 W/m² | - |
| 1777775995 | 17.22° C | 35% | 1008.4 hPa | 0 mm | - | 0 W/m² | - |
| 1777775691 | 17.22° C | 35% | 1008.4 hPa | 0 mm | - | 0 W/m² | - |
| 1777775389 | 17.22° C | 35% | 1008.4 hPa | 0 mm | - | 0 W/m² | - |
| 1777775084 | 17.22° C | 35% | 1008.8 hPa | 0 mm | - | 0 W/m² | - |
| 1777774476 | 17.78° C | 34% | 1008.4 hPa | 0 mm | - | 0 W/m² | - |
| 1777774174 | 17.78° C | 33% | 1008.4 hPa | 0 mm | - | 0 W/m² | - |
| 1777773264 | 17.78° C | 33% | 1008.4 hPa | 0 mm | - | 0 W/m² | - |
| 1777769629 | 18.89° C | 31% | 1009.2 hPa | 0 mm | - | 12 W/m² | - |
| 1777768416 | 19.44° C | 30% | 1009.8 hPa | 0 mm | - | 21 W/m² | - |
| 1777767810 | 19.44° C | 29% | 1009.5 hPa | 0 mm | - | 32 W/m² | - |
| 1777767507 | 19.44° C | 29% | 1010.2 hPa | 0 mm | - | 26 W/m² | - |
| 1777767203 | 19.44° C | 29% | 1010.2 hPa | 0 mm | - | 32 W/m² | - |
| 1777766900 | 19.44° C | 29% | 1009.8 hPa | 0 mm | - | 48 W/m² | - |
| 1777766295 | 20° C | 29% | 1010.2 hPa | 0 mm | - | 42 W/m² | - |
| 1777765689 | 20° C | 30% | 1010.2 hPa | 0 mm | - | 76 W/m² | - |
| 1777765386 | 20° C | 30% | 1010.5 hPa | 0 mm | - | 82 W/m² | - |
| 1777764779 | 20° C | 31% | 1010.5 hPa | 0 mm | - | 119 W/m² | - |
| 1777761446 | 20° C | 30% | 1010.9 hPa | 0 mm | - | 104 W/m² | - |
| 1777760538 | 20° C | 31% | 1011.2 hPa | 0 mm | - | 145 W/m² | - |
* Rain latest hour (hover to see other rain measurements)
** Current wind speed in m/s (hover to see current wind gust speed)